Powrót do katalogu

STARLINK-33887

AktywnyŁącznośćVLEO
NORAD 63680·PAYLOAD·🇺🇸 United States

Wystrzelony Apr 28, 2025 z Cape Canaveral Space Force Station

Loading…

Następne Przeloty (najbliższe 24 godziny)

TLE

ŚwieżeSource: CelesTrak SupGP

Epoka: Sep 14, 2026, 20:50 UTC

1 63680C 25085S   26257.86854167  .00068897  00000+0  24954-2 0  2570
2 63680  43.0032  42.0870 0001301 273.9276 226.4600 15.27545502    16

Śledź STARLINK-33887 w czasie rzeczywistym z AllMySat

Download on the App Store